Weather in Nevolino

Russia / Perm Krai     57˚22′57″N   56˚54′54″E
temp.,
°C
wind,
m/s
gust,
m/s
humid.,
%
clouds,
%
prec.,
mm/h
press.,
hPa
HPBL,
m
16 january, sat
sat1623:00−11˚se1197100 0.1 101421
02:00−12˚ene2397100 0.1 101222
05:00−12˚ene5895100 0.1 1010162
08:00−10˚e4895100 0.8 1006422
11:00−10˚e51090100 2.3 1004500
14:00−9˚ese5991100 0.0 1002470
17:00−8˚sse4895100 0.9 1000342
20:00−7˚sse41096100 1.1 999293
17 january, sun
sun1723:00−11˚ssw6138998 1.3 1001662
02:00−13˚ssw5129296 0.0 1001380
05:00−13˚s5129296 0.1 1000369
08:00−11˚ssw399595 0.1 998337
11:00−12˚sw499497 0.2 998509
14:00−13˚wsw5890100 0.2 1000732
17:00−14˚wsw4892100 0.3 1004230
20:00−17˚sw469677 0.0 100798
18 january, mon
mon1823:00−18˚wsw359789 0.1 1010100
02:00−21˚w239897 0.1 101327
05:00−23˚wsw239993 0.1 101527
08:00−25˚sw239888 0.0 101625
11:00−25˚sw359782 0.0 101793
14:00−22˚sw469531 0.0 1017250
17:00−23˚sw449638 0.0 101766
20:00−26˚sw23960 0.0 101820
19 january, tue
tue1923:00−26˚sw239711 0.0 101820
02:00−27˚w1197100 0.0 101919
05:00−26˚ne229699 0.0 101819
08:00−25˚ne2395100 0.0 101833
11:00−24˚ne3594100 0.0 1017162
14:00−20˚ne4692100 0.0 1016250
17:00−19˚ne4890100 0.0 1015246
20:00−19˚ene51187100 0.0 1015332
20 january, wed
wed2023:00−19˚ene51183100 0.0 1015341
02:00−20˚ene51083100 0.0 1016315
05:00−21˚ene4985100 0.0 1016270
08:00−23˚ene4887100 0.0 1018182
11:00−23˚ene4887100 0.0 1018233
14:00−21˚ene3587100 0.0 1019240
17:00−24˚e238994 0.0 102020
20:00−27˚ese129012 0.0 102219